Change the Weather History Date:

Monday, September 9, 2013

  Actual Average Record
Temperature  
Mean Temperature 88 °F -  
Max Temperature 93 °F 89 °F - ()
Min Temperature 82 °F 78 °F - ()
Cooling Degree Days 22    
Growing Degree Days 38 (Base 50)    
Moisture  
Dew Point 76 °F    
Average Humidity 71    
Maximum Humidity 84    
Minimum Humidity 50    
Precipitation  
Precipitation 0.00 in 0.07 in - ()
Sea Level Pressure  
Sea Level Pressure 29.88 in    
Wind  
Wind Speed 12 mph ()    
Max Wind Speed 21 mph    
Max Gust Speed -    
Visibility 7.4 miles    
Events      
T = Trace of Precipitation, MM = Missing Value Source: Averaged Metar Reports

Daily Weather History Graph

Daily Weather History Graph

Search for Another Location

Airport or City:

Trip Planner

Search our weather history database for the weather conditions in past years. The results will help you decide how hot, cold, wet, or windy it might be!

Date:

Astronomy

Sep. 09, 2013 Rise Set
Actual Time 6:25 AM AST 6:40 PM AST
Civil Twilight 6:03 AM AST 7:01 PM AST
Nautical Twilight 5:39 AM AST 7:26 PM AST
Astronomical Twilight 5:14 AM AST 7:51 PM AST
Moon 9:51 AM AST (9/9) 9:49 PM AST (9/9)
Length of Visible Light 12h 57m
Length of Day
12h 15m
Waxing Crescent, 19% of the Moon is Illuminated
Sep 9
Waxing Crescent
Sep 12
First Quarter
Sep 19
Full
Sep 26
Last Quarter
Oct 4
New

Hourly Weather History & Observations

Time (AST) Temp. Heat Index Dew Point Humidity Pressure Visibility Wind Dir Wind Speed Gust Speed Precip Events Conditions
12:00 AM 84.2 °F 94.1 °F 77.0 °F 79% 29.86 in 6.2 mi ESE 13.8 mph - N/A   Partly Cloudy
1:00 AM 84.2 °F 94.1 °F 77.0 °F 79% 29.86 in 6.2 mi ESE 13.8 mph - N/A   Partly Cloudy
2:00 AM 83 °F - 76 °F 75% 29.86 in 14 mi ESE 10.4 mph - -   Scattered Clouds
2:00 AM 84.2 °F 94.1 °F 77.0 °F 79% 29.86 in 6.2 mi ESE 12.7 mph - N/A   Partly Cloudy
3:00 AM 84.2 °F 94.1 °F 77.0 °F 79% 29.86 in 6.2 mi ESE 13.8 mph - N/A   Partly Cloudy
4:00 AM 84.2 °F 92.3 °F 75.2 °F 74% 29.86 in 6.2 mi ESE 13.8 mph - N/A   Partly Cloudy
5:00 AM 83 °F - 76 °F 75% 29.88 in 14 mi SE 8.1 mph - -   Scattered Clouds
5:00 AM 82.4 °F 90.9 °F 77.0 °F 84% 29.89 in 6.2 mi ESE 10.4 mph - N/A   Partly Cloudy
6:00 AM 82.4 °F 90.9 °F 77.0 °F 84% 29.89 in 6.2 mi ESE 11.5 mph - N/A   Scattered Clouds
7:00 AM 84.2 °F 94.1 °F 77.0 °F 79% 29.89 in 6.2 mi ESE 10.4 mph - N/A   Scattered Clouds
8:00 AM 86 °F - 77 °F 67% 29.91 in 12 mi SE 10.4 mph - -   Haze
8:00 AM 86.0 °F 96.9 °F 77.0 °F 74% 29.92 in 6.2 mi SE 15.0 mph - N/A   Mostly Cloudy
9:00 AM 87.8 °F 97.6 °F 75.2 °F 66% 29.92 in 6.2 mi ESE 20.7 mph - N/A   Mostly Cloudy
10:00 AM 87.8 °F 97.6 °F 75.2 °F 66% 29.95 in 6.2 mi SE 19.6 mph - N/A   Mostly Cloudy
11:00 AM 90 °F - 74 °F 50% 29.94 in 14 mi SSE 12.7 mph - -   Scattered Clouds
11:00 AM 91.4 °F 102.5 °F 75.2 °F 59% 29.92 in 6.2 mi SSE 13.8 mph - N/A   Partly Cloudy
12:00 PM 91.4 °F 102.5 °F 75.2 °F 59% 29.92 in 6.2 mi ESE 17.3 mph - N/A   Scattered Clouds
1:00 PM 89.6 °F 102.2 °F 77.0 °F 66% 29.89 in 6.2 mi East 15.0 mph - N/A   Scattered Clouds
2:00 PM 89 °F - 77 °F 61% 29.86 in 9 mi ESE 13.8 mph - -   Haze
2:00 PM 89.6 °F 102.2 °F 77.0 °F 66% 29.86 in 6.2 mi East 17.3 mph - N/A   Scattered Clouds
3:00 PM 89.6 °F 102.2 °F 77.0 °F 66% 29.83 in 6.2 mi East 16.1 mph - N/A   Partly Cloudy
4:00 PM 87.8 °F 99.7 °F 77.0 °F 70% 29.83 in 6.2 mi East 16.1 mph - N/A   Partly Cloudy
5:00 PM 88 °F - 76 °F 61% 29.82 in 7 mi ESE 15.0 mph - -   Scattered Clouds
5:00 PM 87.8 °F 99.7 °F 77.0 °F 70% 29.83 in 6.2 mi East 15.0 mph - N/A   Partly Cloudy
6:00 PM 86.0 °F 96.9 °F 77.0 °F 74% 29.83 in 6.2 mi East 13.8 mph - N/A   Partly Cloudy
7:00 PM 86.0 °F 96.9 °F 77.0 °F 74% 29.83 in 6.2 mi East 15.0 mph - N/A   Partly Cloudy
8:00 PM 84 °F - 75 °F 69% 29.85 in 9 mi East 16.1 mph - -   Scattered Clouds
8:00 PM 84.2 °F 92.3 °F 75.2 °F 74% 29.83 in 6.2 mi East 16.1 mph - N/A   Partly Cloudy
9:00 PM 84.2 °F 92.3 °F 75.2 °F 74% 29.89 in - East 16.1 mph - N/A   Clear
10:00 PM 84.2 °F 92.3 °F 75.2 °F 74% 29.89 in 6.2 mi East 16.1 mph - N/A   Partly Cloudy
11:00 PM 84 °F - 76 °F 70% 29.92 in 9 mi ESE 15.0 mph - -   Haze
11:00 PM 84.2 °F 92.3 °F 75.2 °F 74% 29.92 in 6.2 mi East 16.1 mph - N/A   Scattered Clouds